Regional Weather Roundup
Issued by NWS

Home | Current Version | Previous Version | Text Only | Print | Product List | Glossary On
Versions: 1 2 3 4 5 6 7 8 9 10 11 12 13 14 15 16 17 18 19 20 21 22 23 24 25 26 27 28 29 30 31 32 33 34 35 36 37 38 39 40 41 42 43 44 45 46 47 48 49 50
741
ASUS44 KLUB 111010
RWRTX
WEST TEXAS WEATHER ROUNDUP
NATIONAL WEATHER SERVICE LUBBOCK TX
400 AM CST THU FEB 11 2016

NOTE: "FAIR" INDICATES FEW OR NO CLOUDS BELOW 12,000 FEET WITH NO
SIGNIFICANT WEATHER AND/OR OBSTRUCTIONS TO VISIBILITY.

TXZ004-006>008-010-012-014-016-OKZ002-111100-
TEXAS PANHANDLE/OKLAHOMA PANHANDLE

CITY           SKY/WX    TMP DP  RH WIND       PRES   REMARKS
AMARILLO       CLOUDY    36  17  46 N9        30.12R WCI  29
BORGER         CLOUDY    45  19  35 CALM      30.13R
CANADIAN       CLOUDY    33  23  68 CALM      30.11R
DALHART        CLOUDY    40  17  39 N13       30.17S WCI  32
DUMAS          CLOUDY    32  18  55 N12       30.15R WCI  23
GUYMON         PTCLDY    39  22  50 N8        30.15R WCI  33
PAMPA          CLOUDY    39  20  47 CALM      30.12R
PERRYTON       CLOUDY    41  26  55 N8        30.14R
$$

TXZ026-029-035-045-048-111100-
SOUTHERN PANHANDLE/SOUTH PLAINS/ROLLING PLAINS

CITY           SKY/WX    TMP DP  RH WIND       PRES   REMARKS
CHILDRESS      CLOUDY    43  22  43 N5        30.05R
SEMINOLE       CLOUDY    41  19  39 W5        30.11F
LUBBOCK        CLOUDY    36  19  50 W12       30.08F WCI  28
PLAINVIEW      CLOUDY    35  18  50 W8        30.07S WCI  28
SNYDER           N/A     46  23  40 S5        30.10S
$$

TXZ052-054-060>062-072-078-127-140-154-169-111100-
PERMIAN BASIN/CONCHO VALLEY/BIG COUNTRY/EDWARDS PLATEAU

CITY           SKY/WX    TMP DP  RH WIND       PRES   REMARKS
ABILENE        CLEAR     57  26  30 SW14      30.06F
BIG SPRING     CLEAR     42  22  45 SE5       30.13S
BROWNWOOD      PTCLDY    39  28  65 E5        30.11S
JUNCTION       CLEAR     40  26  57 W3        30.14S
MIDLAND        CLEAR     48  23  37 SW8       30.11F
ODESSA         CLOUDY    47  22  37 SW7       30.12F
SAN ANGELO     CLEAR     56  26  31 S14       30.10F
SONORA         CLEAR     34  27  75 CALM      30.19S
SWEETWATER     CLEAR     55  24  29 SW21      30.10S
WINK           CLOUDY    31  20  63 N7        30.12S WCI  24
$$

TXZ055-058-074-075-080-082-111100-
FAR WEST/SOUTHWEST MOUNTAINS/TRANS PECOS

CITY           SKY/WX    TMP DP  RH WIND       PRES   REMARKS
ALPINE         CLOUDY    45  15  30 SW6       30.26F
DRYDEN           N/A     43  20  39 W7        30.12F
EL PASO        MOCLDY    39  19  44 N6        30.22S WCI  35
FORT STOCKTON  CLEAR     50  18  28 SW16      30.14S
GUADALUPE PASS CLOUDY    48  14  25 SW10      30.24S
MARFA          CLOUDY    26  12  55 N3        30.24F
PECOS          CLOUDY    42  19  40 W7        30.13S
PRESIDIO       FAIR      48  15  27 N6        30.18S
$$

TXZ014-016-019-021>030-083-111100
TEXAS TECH WEST TEXAS MESONET/TEXAS PANHANDLE/NORTHERN SOUTH PLAINS

CITY           SKY/WX    TMP DP  RH WIND       PRES   REMARKS
ABERNATHY 5ENE   N/A     34  19  54 W8        30.08F WCI  27
AMARILLO 9NNE    N/A     24  15  70 CALM      30.13R
AMARILLO 7SSE    N/A     38  17  42 N9        30.12R WCI  32
AMHERST 1NE      N/A     41  18  38 NW12      30.09S
BOOTLEG 11WNW    N/A     40  12  32 NW15      30.16R WCI  32
CANADIAN 6E      N/A     43  24  46 NW8       30.09R
CAPROCK CYN SP   N/A     46  19  32 NW12      30.08
CHILDRESS 2NNE   N/A     44  21  40 N9        30.05R
CLARENDON 2WSW   N/A     36  19  50 N6        30.08R WCI  31
CLAUDE 12SW      N/A     37  17  45 N13       30.09S WCI  28
DIMMITT 2NE      N/A     33  17  52 NW14      30.09F WCI  23
FLOYDADA 2NNE    N/A     31  17  56 NW8       30.08R WCI  23
FRIONA 2NE       N/A     40  15  36 NW8       30.12S WCI  34
GOODLETT 3W      N/A     41  24  51 W10       30.04R
HART 3N          N/A     29  17  59 NW7       30.09R WCI  22
HEREFORD 2NW     N/A     33  15  48 N10       30.11S WCI  25
MCLEAN 1E        N/A     44  19  36 N13       30.07R
MEMPHIS 1NE      N/A     47  19  33 N7        30.06R
MULESHOE 2SSW    N/A     33  18  54 W7        30.11S WCI  27
OLTON 6S         N/A     33  19  55 W9        30.09R WCI  25
PALO DURO SP     N/A     42  15  34 N5        30.12R
PAMPA 2E         N/A     41  21  43 N9        30.11R
PLAINVIEW 1S     N/A     41  19  42 NW9       30.08R
TULIA 2ENE       N/A     31  20  62 NW10      30.09S WCI  23
TURKEY 2WSW      N/A     48  20  32 N10       30.06R
UMBARGER 3NNE    N/A     35  15  45 N12       30.12R WCI  26
$$

TXZ033>036-039>041-045>048-111100
TEXAS TECH WEST TEXAS MESONET/SOUTH PLAINS

CITY           SKY/WX    TMP DP  RH WIND       PRES   REMARKS
AIKEN 3WSW       N/A     37  20  50 NW12      30.09R WCI  29
ANDREWS 2NE      N/A     41  21  45 SW9       30.12S
ANTON 6SSW       N/A     33  16  49 W7        30.09S WCI  27
BROWNFIELD 2S    N/A     39  17  42 W10       30.10S WCI  32
DENVR CTY 7WNW   N/A     37  18  46 W10       30.10F WCI  30
GAIL 2ESE        N/A     48  21  34 SW10      30.09R
LAMESA 2SE       N/A     38  20  49 W9        30.12R WCI  31
LEVELLAND 4S     N/A     31  15  53 W6        30.09S WCI  25
LUBBOCK 3WNW     N/A     36  16  44 SW5       30.09F WCI  32
MORTON 1ENE      N/A     38  18  42 W12       30.10R WCI  31
ODONNELL 1N      N/A     34  19  54 SW7       30.10S WCI  28
PLAINS 3N        N/A     42  19  38 W14       30.10F
RALLS 1SE        N/A     38  18  43 W9        30.08F WCI  32
REESE CENTER     N/A     32  17  52 W8        30.09S WCI  25
SEAGRAVES 1SW    N/A     36  18  49 W3        30.10F
SEMINOLE 2NNE    N/A     40  17  39 W7        30.10F
SLATON 2NE       N/A     43  17  34 W9        30.09S
SNYDER 3E        N/A     45  24  43 S8        30.09S
SUNDOWN 8SW      N/A     40  17  38 W10       30.10S WCI  34
TAHOKA 3NNE      N/A     45  18  33 W8        30.09S
WOLFFORTH 6SSW   N/A     34  15  46 SW9       30.10S WCI  26
$$

TXZ031-032-036>038-042>044-111100-
TEXAS TECH WEST TEXAS MESONET/ROLLING PLAINS

CITY           SKY/WX    TMP DP  RH WIND       PRES   REMARKS
ASPERMONT 3NE    N/A     52  22  31 SW12      30.05S
FLUVANNA 3WNW    N/A     46  21  37 SW10      30.09S
GRAHAM 5SSW      N/A     43  19  38 W12       30.09F
GUTHRIE 10WSW    N/A     51  21  30 SW13      30.04S
HASKELL 1NW      N/A     47  24  40 SW9       30.04S
JAYTON 1SSE      N/A     46  21  37 W12       30.07S
KNOX CITY 3NW    N/A     52  22  30 SW12      30.04S
LK A HENRY 1NW   N/A     50  20  31 W12       30.08R
NORTHFIELD 1S    N/A     49  20  32 W9        30.05S
ODELL 4ENE       N/A     41  25  53 W6        30.04S
PADUCAH 10SW     N/A     53  19  26 W14       30.03R
POST 1NE         N/A     48  19  31 SW15      30.07S
RRING SPRGS 3N   N/A     46  19  34 W14       30.04S
SEYMOUR 3NW      N/A     44  28  52 NW7       30.05R
SPUR 1W          N/A     45  20  37 SW8       30.05F
WEINERT 2NNE     N/A     42  26  53 SW8       30.04S
WHITE RVR 6NE    N/A     50  17  26 W12       30.06
$$

TXZ052-054-060>062-072-078-127-140-154-169-111100-
TEXAS TECH WEST TEXAS MESONET/PERMIAN BASIN/
CONCHO VALLEY/BIG COUNTRY/EDWARDS PLATEAU

CITY           SKY/WX    TMP DP  RH WIND       PRES   REMARKS
COYANOSA 2N      N/A     36  23  59 SW3       30.14S
JUNCTION 1SSW    N/A     33  26  75 N1        30.15S
MERTZON 3NNE     N/A     52  26  36 S12       30.12F
SAN ANGELO 7NW   N/A     53  22  29 SW2       30.11F
STRLNG CT 4WSW   N/A     51  25  35 S14       30.10F
ST LAWRNCE 5SW   N/A     38  22  52 S7        30.11F WCI  33
SWEETWATR 11SW   N/A     52  25  35 SW5       30.11S
WALL 1E          N/A     53  25  33 S18       30.10F
$$

TXZ055-058-074-075-080-082-111100-
TEXAS TECH WEST TEXAS MESONET/FAR WEST/SOUTHWEST MOUNTAINS/TRANS PECOS

CITY           SKY/WX    TMP DP  RH WIND       PRES   REMARKS
PRSMN GAP BBNP   N/A     42  11  27 SW2       30.17F
GUADLPE MTN NP   N/A     56  10  16 W21       30.23S
$$




USA.gov is the U.S. government's official web portal to all federal, state and local government web resources and services.